Regional Weather Roundup
Issued by NWS

Home | Current Version | Previous Version | Graphics & Text | Print | Product List | Glossary On
Versions: 1 2 3 4 5 6 7 8 9 10 11 12 13 14 15 16 17 18 19 20 21 22 23 24 25 26 27 28 29 30 31 32 33 34 35 36 37 38 39 40 41 42 43 44 45 46 47 48 49 50
000
ASUS45 KBOU 240507
RWRCO

WEATHER ROUNDUP FOR COLORADO
NATIONAL WEATHER SERVICE DENVER/BOULDER CO
1100 PM MDT SAT JUL 23 2016

NOTE: "FAIR" INDICATES FEW OR NO CLOUDS BELOW 12000 FEET WITH NO
SIGNIFICANT WEATHER AND/OR OBSTRUCTIONS TO VISIBILITY.

COZ001>005-013-030-031-240600-
...NORTHWEST COLORADO...

CITY           SKY/WX    TMP DP  RH WIND       PRES   REMARKS
CRAIG          FAIR      70  39  32 CALM      30.19F
HAYDEN         FAIR      70  37  30 NE10      30.21F
MEEKER         FAIR      69  44  40 CALM      30.19R
MOUNT WERNER   NOT AVBL
STEAMBOAT SPGS FAIR      67  42  40 NW5       30.26R
WALDEN         FAIR      54  41  62 SE8       30.36S
$$

COZ006>008-011-240600-
...WEST CENTRAL VALLEYS...

CITY           SKY/WX    TMP DP  RH WIND       PRES   REMARKS
GRAND JUNCTION FAIR      83  42  23 W12G22    30.05R
MONTROSE       FAIR      73  45  36 E6        30.15R
EAGLE          FAIR      66  45  45 E10       30.24S
RIFLE          FAIR      72  41  32 VRB5      30.13R
DELTA          FAIR      82  45  27 NE10      30.08S
NUCLA          NOT AVBL
$$

COZ017>023-064>068-240600-
...SOUTHWEST COLORADO...

CITY           SKY/WX    TMP DP  RH WIND       PRES   REMARKS
DURANGO        FAIR      66  46  48 N6        30.23R
CORTEZ         FAIR      70  45  40 NE3       30.15R
PAGOSA SPRINGS FAIR      71  36  28 NW5       30.31S
TELLURIDE      FAIR      62  41  46 SE6       30.47R
WOLF CREEK PAS FAIR      54  32  43 NE10      30.70S
$$

COZ009-010-012-014-032>034-037-058>063-240600-
...CENTRAL COLORADO...

CITY           SKY/WX    TMP DP  RH WIND       PRES   REMARKS
ASPEN          FAIR      60  44  55 SW8       30.33R
BUENA VISTA    FAIR      62  41  46 SW7       30.37R
COPPER MTN     FAIR      59  30  33 W6        30.69S
BERTHOUD PASS  FAIR      48  34  57 NW12      30.71S
COTTONWOOD PAS FAIR      64  37  36 CALM      30.53R
GUNNISON       FAIR      61  43  51 N7        30.35R
KREMMLING      FAIR      54  46  76 N3        30.32S
LEADVILLE      FAIR      54  34  46 E5        30.51R
MONARCH PASS   FAIR      55  36  47 MISG      30.79R
SALIDA         FAIR      65  47  53 CALM      30.41R
SUNLIGHT       FAIR      59  36  41 CALM      30.59F
WILKERSON PASS FAIR      54  36  50 S7        30.67R
$$

COZ069>075-240600-
...SAN LUIS VALLEY/SANGRE DE CRISTO MOUNTAINS...

CITY           SKY/WX    TMP DP  RH WIND       PRES   REMARKS
ALAMOSA        FAIR      60  45  57 E6        30.29S
LA VETA PASS   FAIR      54  43  66 NE13      30.55R
SAGUACHE       FAIR      68  41  37 N3        30.33S
$$

COZ035-036-038>040-240600-
...NORTHERN COLORADO FRONT RANGE...

CITY           SKY/WX    TMP DP  RH WIND       PRES   REMARKS
DENVER INTL AP MOCLDY    70  54  56 SE15      30.15R
DMNS CITY PARK   N/A     74  51  43 SE8G14    30.14S
AURORA         PTCLDY    71  52  52 SE14      30.17R
FRONT RANGE AP NOT AVBL
ERIE MUNI ARPT FAIR      75  49  39 SE15G23   30.12R
BOULDER MUN AP FAIR      73  48  40 CALM      30.13R
CENTENNIAL     FAIR      71  49  45 S13       30.19R
BROOMFIELD     NOT AVBL
LONGMONT       FAIR      76  50  40 SE7       30.14R
$$

COZ041-046-047-076>085-087-088-240600-
...PIKES PEAK/PALMER DIVIDE AND SOUTHERN FOOTHILLS...

CITY           SKY/WX    TMP DP  RH WIND       PRES   REMARKS
COLO. SPRINGS  MOCLDY    71  50  47 N12       30.27R
A. F. ACADEMY  CLOUDY    69  48  47 CALM      30.28R
SCHRIEVER AFB  NOT AVBL
ELLICOTT       MOCLDY   N/A N/A N/A E14       30.23R
FALCON         NOT AVBL
FORT CARSON    MOCLDY    73  49  43 N8        30.22F
LIMON          MOCLDY    67  57  70 N12       30.19F
MONUMENT HILL  FAIR      63  50  63 S12       30.30F
TRINIDAD       NOT AVBL
$$

COZ042>045-048>051-090-091-240600-
...NORTHEAST COLORADO...

CITY           SKY/WX    TMP DP  RH WIND       PRES   REMARKS
GREELEY ARPT   FAIR      70  54  56 NE6       30.15R
AKRON          MOCLDY    74  54  49 E5        30.11R
BURLINGTON     FAIR      79  52  38 NW20G29   30.08R
WRAY           FAIR      79  54  41 NW18G24   30.06R
STERLING       FAIR      70  63  78 SW6       30.07F
HOLYOKE        MOCLDY   N/A N/A N/A NW8       30.11R THUNDER
FORT MORGAN    FAIR      68  53  58 E9        30.13R
$$

COZ086-089-092>099-240600-
...SOUTHEAST COLORADO...

CITY           SKY/WX    TMP DP  RH WIND       PRES   REMARKS
PUEBLO         FAIR      80  51  36 CALM      30.14R
LA JUNTA       FAIR      72  63  73 NE25G32   30.06R
LAMAR          RAIN      70  64  81 NW23G35   30.05R
SPRINGFIELD      N/A     74  58  57 N14       30.05R
$$



USA.gov is the U.S. government's official web portal to all federal, state and local government web resources and services.